Weather History for Glenwood, MN

Change the Weather History Date:

Friday, November 5, 2010

  Actual Average Record
Temperature  
Mean Temperature 34 °F -  
Max Temperature 46 °F 43 °F 73 °F (2001)
Min Temperature 23 °F 26 °F -6 °F (1951)
Degree Days  
Heating Degree Days 30    
Moisture  
Dew Point 21 °F    
Average Humidity 66    
Maximum Humidity 100    
Minimum Humidity 27    
Precipitation  
Precipitation 0.00 in - - ()
Sea Level Pressure  
Sea Level Pressure 30.17 in    
Wind  
Wind Speed 5 mph (West)    
Max Wind Speed 8 mph    
Max Gust Speed -    
Visibility 9 miles    
Events Fog , Snow    
Averages and records for this station are not official NWS values.
T = Trace of Precipitation, MM = Missing Value Source: NWS Daily Summary

Daily Weather History Graph

Daily Weather History Graph

Search for Another Location

Airport:

Trip Planner

Search our weather history database for the weather conditions in past years. The results will help you decide how hot, cold, wet, or windy it might be!

Date:

Astronomy

Nov. 05, 2010 Rise Set
Actual Time 8:06 AM CDT 6:02 PM CDT
Civil Twilight 7:35 AM CDT 6:33 PM CDT
Nautical Twilight 7:00 AM CDT 7:09 PM CDT
Astronomical Twilight 6:25 AM CDT 7:43 PM CDT
Moon 7:35 AM CDT (11/5) 5:22 PM CDT (11/5)
Length of Visible Light 10h 58m
Length of Day
9h 55m
Waning Crescent, 0% of the Moon is Illuminated
Nov 5
Waning Crescent
Nov 5
New
Nov 13
First Quarter
Nov 21
Full
Nov 28
Last Quarter

Hourly Weather History & Observations

Time (CDT) Temp. Windchill Dew Point Humidity Pressure Visibility Wind Dir Wind Speed Gust Speed Precip Events Conditions
12:13 AM 28.4 °F 22.2 °F 24.8 °F 86% 30.21 in 10.0 mi NNW 5.8 mph - N/A   Clear
12:33 AM 26.6 °F 20.0 °F 21.2 °F 80% 30.21 in 10.0 mi NW 5.8 mph - N/A   Clear
12:53 AM 26.6 °F 21.2 °F 23.0 °F 86% 30.22 in 10.0 mi NNW 4.6 mph - N/A   Clear
1:13 AM 26.6 °F 20.0 °F 21.2 °F 80% 30.21 in 10.0 mi NW 5.8 mph - N/A   Clear
1:33 AM 26.6 °F 21.2 °F 23.0 °F 86% 30.21 in 10.0 mi NNW 4.6 mph - N/A   Clear
1:53 AM 26.6 °F - 21.2 °F 80% 30.21 in 10.0 mi Calm Calm - N/A   Clear
2:13 AM 26.6 °F 22.6 °F 21.2 °F 80% 30.22 in 10.0 mi West 3.5 mph - N/A   Clear
2:33 AM 24.8 °F 17.9 °F 21.2 °F 86% 30.22 in 10.0 mi NW 5.8 mph - N/A   Clear
2:53 AM 26.6 °F 21.2 °F 21.2 °F 80% 30.21 in 10.0 mi NW 4.6 mph - N/A   Clear
3:13 AM 28.4 °F 24.6 °F 23.0 °F 80% 30.21 in 10.0 mi NNW 3.5 mph - N/A   Clear
3:33 AM 26.6 °F - 21.2 °F 80% 30.21 in 10.0 mi Calm Calm - N/A   Clear
3:53 AM 26.6 °F 22.6 °F 23.0 °F 86% 30.20 in 10.0 mi North 3.5 mph - N/A   Clear
4:13 AM 28.4 °F 23.3 °F 23.0 °F 80% 30.20 in 10.0 mi North 4.6 mph - N/A   Clear
4:33 AM 28.4 °F 24.6 °F 23.0 °F 80% 30.20 in 10.0 mi NNW 3.5 mph - N/A   Clear
4:53 AM 24.8 °F 20.5 °F 21.2 °F 86% 30.20 in 10.0 mi NNW 3.5 mph - N/A   Clear
5:13 AM 26.6 °F - 21.2 °F 80% 30.20 in 10.0 mi Calm Calm - N/A   Clear
5:33 AM 24.8 °F 20.5 °F 21.2 °F 86% 30.21 in 10.0 mi NW 3.5 mph - N/A   Clear
5:53 AM 23.0 °F 14.7 °F 19.4 °F 86% 30.21 in 10.0 mi West 6.9 mph - N/A   Clear
6:13 AM 24.8 °F 16.9 °F 21.2 °F 86% 30.21 in 10.0 mi West 6.9 mph - N/A   Clear
6:33 AM 24.8 °F 17.9 °F 21.2 °F 86% 30.21 in 10.0 mi West 5.8 mph - N/A   Clear
6:53 AM 24.8 °F 19.1 °F 21.2 °F 86% 30.21 in 10.0 mi West 4.6 mph - N/A   Clear
7:13 AM 24.8 °F 17.9 °F 21.2 °F 86% 30.20 in 10.0 mi West 5.8 mph - N/A   Clear
7:33 AM 24.8 °F 16.9 °F 21.2 °F 86% 30.20 in 10.0 mi West 6.9 mph - N/A   Clear
7:54 AM 24.8 °F 19.1 °F 21.2 °F 86% 30.20 in 10.0 mi West 4.6 mph - N/A   Clear
8:13 AM 24.8 °F 17.9 °F 21.2 °F 86% 30.20 in 0.5 mi WSW 5.8 mph - N/A Fog Light Freezing Fog
8:33 AM 24.8 °F 17.9 °F 24.8 °F 100% 30.20 in 0.2 mi West 5.8 mph - N/A Snow Light Snow
8:53 AM 26.6 °F 22.6 °F 24.8 °F 93% 30.20 in 4.0 mi West 3.5 mph - N/A   Scattered Clouds
9:13 AM 28.4 °F - 26.6 °F 93% 30.20 in 7.0 mi Calm Calm - N/A   Clear
9:33 AM 30.2 °F - 26.6 °F 86% 30.20 in 10.0 mi Calm Calm - N/A   Clear
9:53 AM 30.2 °F 25.4 °F 26.6 °F 86% 30.20 in 10.0 mi WSW 4.6 mph - N/A   Clear
10:13 AM 32.0 °F 27.5 °F 28.4 °F 87% 30.20 in 10.0 mi West 4.6 mph - N/A   Clear
10:33 AM 33.8 °F 29.6 °F 28.4 °F 81% 30.20 in 10.0 mi West 4.6 mph - N/A   Clear
10:53 AM 35.6 °F 30.7 °F 26.6 °F 70% 30.20 in 10.0 mi West 5.8 mph - N/A   Clear
11:13 AM 35.6 °F 29.9 °F 24.8 °F 65% 30.19 in 10.0 mi West 6.9 mph - N/A   Clear
11:33 AM 37.4 °F 31.4 °F 24.8 °F 60% 30.19 in 10.0 mi WSW 8.1 mph - N/A   Clear
11:53 AM 37.4 °F 31.4 °F 24.8 °F 60% 30.18 in 10.0 mi West 8.1 mph - N/A   Clear
12:13 PM 39.2 °F 34.2 °F 24.8 °F 56% 30.18 in 10.0 mi West 6.9 mph - N/A   Clear
12:33 PM 39.2 °F 34.2 °F 24.8 °F 56% 30.18 in 10.0 mi WSW 6.9 mph - N/A   Clear
12:53 PM 41.0 °F 37.1 °F 23.0 °F 49% 30.17 in 10.0 mi West 5.8 mph - N/A   Clear
1:13 PM 42.8 °F 41.1 °F 23.0 °F 46% 30.16 in 10.0 mi WSW 3.5 mph - N/A   Clear
1:33 PM 42.8 °F 40.1 °F 21.2 °F 42% 30.15 in 10.0 mi West 4.6 mph - N/A   Clear
1:53 PM 44.6 °F 41.4 °F 19.4 °F 37% 30.15 in 10.0 mi West 5.8 mph - N/A   Clear
2:13 PM 44.6 °F 42.2 °F 17.6 °F 34% 30.14 in 10.0 mi West 4.6 mph - N/A   Clear
2:33 PM 44.6 °F 42.2 °F 15.8 °F 31% 30.14 in 10.0 mi WSW 4.6 mph - N/A   Clear
2:53 PM 44.6 °F 43.1 °F 17.6 °F 34% 30.13 in 10.0 mi West 3.5 mph - N/A   Clear
3:13 PM 46.4 °F 43.5 °F 14.0 °F 27% 30.12 in 10.0 mi SW 5.8 mph - N/A   Clear
3:33 PM 46.4 °F 43.5 °F 15.8 °F 29% 30.11 in 10.0 mi SW 5.8 mph - N/A   Clear
3:53 PM 46.4 °F 44.3 °F 15.8 °F 29% 30.11 in 10.0 mi SSW 4.6 mph - N/A   Clear
4:13 PM 46.4 °F - 15.8 °F 29% 30.11 in 10.0 mi Calm Calm - N/A   Clear
4:33 PM 46.4 °F 44.3 °F 15.8 °F 29% 30.10 in 10.0 mi SSW 4.6 mph - N/A   Clear
4:53 PM 46.4 °F 44.3 °F 15.8 °F 29% 30.10 in 10.0 mi SSW 4.6 mph - N/A   Clear
5:13 PM 44.6 °F 41.4 °F 17.6 °F 34% 30.10 in 10.0 mi SSW 5.8 mph - N/A   Clear
5:33 PM 42.8 °F 40.1 °F 17.6 °F 36% 30.10 in 10.0 mi SSW 4.6 mph - N/A   Clear
5:54 PM 41.0 °F 37.1 °F 17.6 °F 39% 30.10 in 10.0 mi South 5.8 mph - N/A   Clear
6:13 PM 37.4 °F 32.8 °F 19.4 °F 48% 30.09 in 7.0 mi South 5.8 mph - N/A   Clear
6:33 PM 39.2 °F 35.9 °F 19.4 °F 45% 30.10 in 10.0 mi SSE 4.6 mph - N/A   Clear
6:53 PM 37.4 °F 33.8 °F 19.4 °F 48% 30.10 in 7.0 mi SE 4.6 mph - N/A   Clear
7:13 PM 35.6 °F 30.7 °F 19.4 °F 52% 30.10 in 7.0 mi SE 5.8 mph - N/A   Clear
7:34 PM 35.6 °F 29.9 °F 19.4 °F 52% 30.10 in 10.0 mi SE 6.9 mph - N/A   Clear
8:13 PM 33.8 °F 27.0 °F 19.4 °F 56% 30.10 in 10.0 mi SSE 8.1 mph - N/A   Clear
8:33 PM 33.8 °F 26.4 °F 21.2 °F 60% 30.09 in 10.0 mi SSE 9.2 mph - N/A   Clear
8:53 PM 33.8 °F 26.4 °F 21.2 °F 60% 30.08 in 10.0 mi SSE 9.2 mph - N/A   Clear
9:13 PM 33.8 °F 27.0 °F 21.2 °F 60% 30.08 in 10.0 mi SSE 8.1 mph - N/A   Clear
9:33 PM 33.8 °F 26.4 °F 21.2 °F 60% 30.08 in 10.0 mi SSE 9.2 mph - N/A   Clear
9:53 PM 33.8 °F 26.4 °F 21.2 °F 60% 30.07 in 10.0 mi SSE 9.2 mph - N/A   Clear
10:13 PM 33.8 °F 26.4 °F 19.4 °F 56% 30.07 in 10.0 mi SSE 9.2 mph - N/A   Clear
10:33 PM 33.8 °F 26.4 °F 21.2 °F 60% 30.07 in 10.0 mi SSE 9.2 mph - N/A   Clear
10:53 PM 32.0 °F 24.2 °F 21.2 °F 64% 30.07 in 10.0 mi SSE 9.2 mph - N/A   Clear
11:13 PM 33.8 °F 26.4 °F 21.2 °F 60% 30.06 in 10.0 mi South 9.2 mph - N/A   Clear
11:33 PM 33.8 °F 25.8 °F 21.2 °F 60% 30.07 in 10.0 mi South 10.4 mph - N/A   Clear
11:53 PM 33.8 °F 25.3 °F 21.2 °F 60% 30.06 in 10.0 mi South 11.5 mph - N/A   Clear